Home   Weather   Kassel   Past weeks

Flag for Germany Past Weather in Kassel, Hesse, Germany — Yesterday and Last 2 Weeks

Now
34 °F

Passing clouds.


Feels Like: 31 °F
Forecast: 37 / 46 °F
Wind: 3 mph from South

Location: Kassel / Calden

Current Time: Apr 24, 2017 at 7:47:14 am

Latest Report: Apr 24, 2017 at 7:20 am


Visibility: N/A

Pressure: 30.07 "Hg

Humidity: 87%

Dew Point: 30 °F

Location of KasselLocation

Past Weather in Kassel — Graph

°F

Kassel Temperature Yesterday

Maximum temperature yesterday: 46 °F (at 4:20 pm)
Minimum temperature yesterday: 37 °F (at 7:20 am)
Average temperature yesterday: 43 °F

High & Low Weather Summary for the Past Weeks

 TemperatureHumidityPressure
High68 °F (Apr 9, 4:20 pm)100% (Apr 9, 7:20 am)30.60 "Hg (Apr 9, 7:20 am)
Low25 °F (Apr 20, 5:20 am)40% (Apr 9, 4:20 pm)29.83 "Hg (Apr 13, 3:20 am)
Average45 °F68%30.18 "Hg
* Reported Apr 8 7:20 pm — Apr 23 7:50 pm, Kassel, Weather by CustomWeather, © 2017

Note: Actual official high and low records may vary slightly from our data, if they occured in-between our weather recording intervals... More about our weather records

Advertising

Kassel Weather History for the Previous 24 Hours

Scroll right to see more
 ConditionsComfort  
Time TempWeatherWind HumidityBarometerVisibility
7:50 pm
Sun, Apr 23
45 °FPartly sunny.9 mph57%30.18 "HgN/A
7:20 pm45 °FPartly sunny.10 mph57%30.18 "HgN/A
6:50 pm45 °FPartly sunny.9 mph61%30.18 "HgN/A
6:20 pm45 °FScattered clouds.13 mph61%30.18 "HgN/A
5:50 pm45 °FPartly sunny.15 mph61%30.18 "HgN/A
5:20 pm46 °FBroken clouds.18 mph57%30.18 "HgN/A
4:50 pm46 °FPartly sunny.18 mph53%30.18 "HgN/A
4:20 pm46 °FPartly sunny.13 mph57%30.18 "HgN/A
3:50 pm45 °FPartly sunny.15 mph61%30.18 "HgN/A
3:20 pm45 °FPartly sunny.18 mph57%30.18 "HgN/A
2:50 pm45 °FPartly sunny.14 mph57%30.18 "HgN/A
2:20 pm45 °FPartly sunny.15 mph57%30.21 "HgN/A
1:50 pm45 °FPartly sunny.14 mph57%30.21 "HgN/A
1:20 pm45 °FBroken clouds.16 mph57%30.21 "HgN/A
12:50 pm45 °FPartly sunny.15 mph57%30.21 "HgN/A
12:20 pm43 °FBroken clouds.13 mph61%30.21 "HgN/A
11:50 am45 °FBroken clouds.15 mph57%30.21 "HgN/A
11:20 am41 °FBroken clouds.13 mph70%30.21 "HgN/A
10:50 am41 °FBroken clouds.14 mph70%30.21 "HgN/A
10:20 am41 °FMostly cloudy.15 mph76%30.21 "HgN/A
9:50 am39 °FMostly cloudy.13 mph81%30.21 "HgN/A
9:20 am39 °FMostly cloudy.13 mph81%30.21 "HgN/A
8:50 am37 °FMostly cloudy.12 mph93%30.21 "HgN/A
8:20 am37 °FLight rain. Broken clouds.13 mph93%30.21 "HgN/A
7:50 am37 °FPartly sunny.12 mph87%30.18 "HgN/A
7:20 am37 °FPartly sunny.12 mph87%30.18 "HgN/A
Weather by CustomWeather, © 2017

See weather overviewHow to use our weather pages